Location: Unspecified
(0.0000°N, 0.0000°E)
Time: 20:06:49
(UTC+00:00)

CZ-3C DEB - Pass Details

Date: 09 March 2026
Orbit: 717 x 38360 km, 18.5° (Epoch: 25 March)

Event Time Altitude Azimuth Distance (km) Brightness Sun altitude
Exits shadow 03:53:42 48° 256° (WSW) 3,894 ? -34.1°
Maximum altitude 13:55:27 79° 23° (NNE) 13,998 ? 63.4°
Drops below altitude 10° 14:39:21 10° 103° (ESE) 6,728 ? 52.6°
Sets 14:42:03 0° 104° (ESE) 6,935 ? 51.9°
